Weather History for Corsicana, TX

Change the Weather History Date:

Monday, November 4, 2013

  Actual Average (KACT) Record (KACT)
Temperature  
Mean Temperature 58 °F 62 °F  
Max Temperature 62 °F 73 °F 92 °F (1948)
Min Temperature 54 °F 51 °F 23 °F (1991)
Degree Days  
Heating Degree Days 7 5  
Month to date heating degree days 20  
Since 1 July heating degree days 87  
Cooling Degree Days 0 2  
Month to date cooling degree days 10  
Year to date cooling degree days 2766  
Growing Degree Days 8 (Base 50)    
Moisture  
Dew Point 56 °F    
Average Humidity 89    
Maximum Humidity 100    
Minimum Humidity 62    
Precipitation  
Precipitation 0.44 in 0.11 in 1.74 in (1964)
Month to date precipitation 0.44  
Year to date precipitation 29.56  
Snow  
Snow 0.00 in 0.00 in T in (1992)
Month to date snowfall 0.0  
Since 1 July snowfall 0.0  
Since 1 September snowfall 0.0  
Snow Depth -    
Sea Level Pressure  
Sea Level Pressure 30.07 in    
Wind  
Wind Speed 7 mph (East)    
Max Wind Speed 15 mph    
Max Gust Speed -    
Visibility 6 miles    
Events Rain    
T = Trace of Precipitation, MM = Missing Value Source: NWS Daily Summary

Daily Weather History Graph

Daily Weather History Graph

Search for Another Location

Airport:

Trip Planner

Search our weather history database for the weather conditions in past years. The results will help you decide how hot, cold, wet, or windy it might be!

Date:

Astronomy

Nov. 04, 2013 Rise Set
Actual Time 6:45 AM CST 5:32 PM CST
Civil Twilight 6:19 AM CST 5:58 PM CST
Nautical Twilight 5:50 AM CST 6:27 PM CST
Astronomical Twilight 5:21 AM CST 6:56 PM CST
Moon 7:53 AM CST (11/4) 6:42 PM CST (11/4)
Length of Visible Light 11h 38m
Length of Day
10h 47m
New Moon, 2% of the Moon is Illuminated
Nov 4
New Moon
Nov 9
First Quarter
Nov 17
Full
Nov 25
Last Quarter
Dec 2
New

Hourly Weather History & Observations

Time (CST) Temp. Dew Point Humidity Pressure Visibility Wind Dir Wind Speed Gust Speed Precip Events Conditions
12:53 AM 57.0 °F 45.0 °F 64% 30.05 in 10.0 mi SSE 11.5 mph - N/A   Clear
1:53 AM 57.0 °F 44.1 °F 62% 30.04 in 10.0 mi SSE 15.0 mph - N/A   Overcast
2:53 AM 55.9 °F 44.1 °F 64% 30.06 in 10.0 mi SSE 9.2 mph - 0.00 in Rain Light Rain
3:53 AM 55.9 °F 43.0 °F 62% 30.05 in 10.0 mi SE 6.9 mph - 0.00 in   Scattered Clouds
4:22 AM 55.4 °F 44.6 °F 67% 30.07 in 10.0 mi Calm Calm - 0.00 in   Overcast
4:53 AM 55.0 °F 46.0 °F 72% 30.06 in 10.0 mi ENE 3.5 mph - 0.00 in Rain Light Rain
5:43 AM 55.4 °F 46.4 °F 72% 30.06 in 10.0 mi East 4.6 mph - 0.00 in   Scattered Clouds
5:51 AM 55.4 °F 46.4 °F 72% 30.06 in 10.0 mi East 4.6 mph - 0.00 in   Mostly Cloudy
5:53 AM 55.0 °F 46.0 °F 72% 30.06 in 10.0 mi East 4.6 mph - 0.00 in   Mostly Cloudy
6:07 AM 55.4 °F 46.4 °F 72% 30.07 in 10.0 mi East 4.6 mph - 0.00 in Rain Light Rain
6:53 AM 54.0 °F 48.9 °F 83% 30.06 in 10.0 mi ESE 8.1 mph - N/A Rain Light Rain
7:53 AM 54.0 °F 52.0 °F 93% 30.10 in 7.0 mi ESE 4.6 mph - 0.02 in Rain Light Rain
8:53 AM 55.0 °F 52.0 °F 89% 30.11 in 10.0 mi ESE 6.9 mph - 0.01 in   Mostly Cloudy
9:53 AM 55.9 °F 52.0 °F 87% 30.12 in 10.0 mi ESE 5.8 mph - 0.00 in Rain Light Rain
10:53 AM 57.9 °F 54.0 °F 87% 30.12 in 10.0 mi SE 4.6 mph - 0.00 in   Mostly Cloudy
11:53 AM 59.0 °F 55.0 °F 87% 30.10 in 9.0 mi SE 4.6 mph - 0.00 in Rain Light Rain
12:53 PM 59.0 °F 55.9 °F 90% 30.07 in 10.0 mi ESE 6.9 mph - 0.00 in Rain Light Rain
1:53 PM 60.1 °F 57.9 °F 93% 30.06 in 7.0 mi ESE 4.6 mph - 0.00 in Rain Light Rain
2:53 PM 61.0 °F 59.0 °F 93% 30.06 in 8.0 mi East 3.5 mph - 0.01 in Rain Light Rain
3:53 PM 61.0 °F 60.1 °F 97% 30.04 in 4.0 mi East 5.8 mph - 0.04 in Rain Light Rain
4:53 PM 61.0 °F 60.1 °F 97% 30.04 in 6.0 mi ENE 5.8 mph - 0.01 in Rain Light Rain
5:17 PM 60.8 °F 60.8 °F 100% 30.06 in 8.0 mi East 5.8 mph - 0.00 in   Overcast
5:32 PM 60.8 °F 60.8 °F 100% 30.06 in 6.0 mi ENE 3.5 mph - 0.00 in Rain Light Rain
5:53 PM 61.0 °F 60.1 °F 97% 30.06 in 6.0 mi East 4.6 mph - 0.00 in Rain Light Rain
6:50 PM 60.8 °F 60.8 °F 100% 30.07 in 2.5 mi East 5.8 mph - 0.03 in Rain Rain
6:51 PM 61.0 °F 60.1 °F 97% 30.07 in 2.5 mi East 6.9 mph - 0.03 in Rain Rain
7:15 PM 60.8 °F 60.8 °F 100% 30.08 in 2.5 mi East 5.8 mph - 0.04 in Rain Rain
7:44 PM 60.8 °F 60.8 °F 100% 30.07 in 4.0 mi ENE 4.6 mph - 0.08 in Rain Light Rain
7:53 PM 61.0 °F 60.1 °F 97% 30.07 in 5.0 mi ENE 4.6 mph - 0.08 in Rain Light Rain
8:16 PM 60.8 °F 60.8 °F 100% 30.07 in 2.5 mi NE 3.5 mph - 0.04 in Rain Rain
8:24 PM 60.8 °F 60.8 °F 100% 30.07 in 4.0 mi NE 3.5 mph - 0.04 in Rain Rain
8:49 PM 60.8 °F 60.8 °F 100% 30.07 in 3.0 mi NE 3.5 mph - 0.07 in Rain Light Rain
8:53 PM 61.0 °F 60.1 °F 97% 30.07 in 3.0 mi NE 3.5 mph - 0.07 in Rain Light Rain
9:24 PM 60.8 °F 60.8 °F 100% 30.08 in 2.0 mi NE 4.6 mph - 0.04 in Rain Rain
9:26 PM 60.8 °F 60.8 °F 100% 30.08 in 2.0 mi ENE 3.5 mph - 0.05 in Rain Heavy Rain
9:53 PM 61.0 °F 60.1 °F 97% 30.08 in 2.5 mi East 8.1 mph - 0.12 in Rain Rain
10:14 PM 62.6 °F 60.8 °F 94% 30.08 in 3.0 mi ESE 10.4 mph - 0.02 in Rain Light Rain
10:28 PM 62.6 °F 60.8 °F 94% 30.08 in 3.0 mi East 8.1 mph - 0.02 in Rain Light Rain
10:48 PM 62.6 °F 60.8 °F 94% 30.08 in 3.0 mi East 10.4 mph - 0.04 in Rain Light Rain
10:53 PM 62.1 °F 60.1 °F 93% 30.07 in 3.0 mi East 8.1 mph - 0.05 in Rain Rain
11:01 PM 62.6 °F 60.8 °F 94% 30.08 in 2.5 mi East 6.9 mph - 0.00 in Rain Light Rain
11:05 PM 62.6 °F 60.8 °F 94% 30.08 in 3.0 mi East 5.8 mph - 0.00 in Rain Light Rain
11:13 PM 62.6 °F 60.8 °F 94% 30.07 in 5.0 mi East 6.9 mph - 0.00 in Rain Light Rain
11:53 PM 62.1 °F 61.0 °F 96% 30.06 in 6.0 mi ESE 8.1 mph - 0.00 in Rain Light Rain